NOAA 16 DEB, 41258

Orbit data source: Space-Track

NOAA 16 DEB, 41258 is space debris in SSO originally from a launch on Thu, 21 Sep 2000 UTC launched from the Air Force Western Test Range (AFWTR). Debris objects in space refer to the collection of defunct objects orbiting the Earth. Examples of debris include non-operational satellites, rocket bodies, and fragments generated from explosions, collisions, or faulty payload assembly.

Loading next visibility...
Identifier
41258, 2000-055FJ
Orbit
SSO
Country
Flag of USUS
Related business
Manufacturer
Unknown
Mission
Spacecraft
Bus & Motor
Unknown
Mass
Unknown
Launch date (UTC)
2000-09-21 (26 years ago)
Launch vehicle
Unknown
Launch site
Air Force Western Test Range (AFWTR)
Object type
Payload
Rocket body
Debris
Shape & HBR
Unknown shape, 0.1 m
Radar Cross Section
Medium (>0.1 m² and <1 m²)

Expand to show TLE details & history
Last TLE update: 1 day ago

TLE from 1 day ago
0 NOAA 16 DEB
1 41258U 00055FJ  26207.97924885  .00009463  00000-0  18205-2 0  9999
2 41258  98.9760 116.7517 0035071 292.8824  66.8675 14.63452972552384
Epoch: 2026-07-26T23:30Z
TLE epoch observation values (Epoch: 2026-07-26T23:30:07.100Z)
Latitude
0.00002°
Longitude
179.5527°
Altitude
675.356 km
Speed
7.524 km/s
True Right ascension
07h 47m 00s
True Declination
0° 00' 00"
Sunlit
Object was in daylight at epoch
Visualization orbit readout
Latitude
Unknown
Longitude
Unknown
Altitude
Unknown
Speed
Unknown
Apparent Right ascension
Unknown
Apparent Declination
Unknown
Sunlit
N/A
Visualization observer readout
Local Sidereal Time
17:37:07
Azimuth
Unknown
Elevation
Unknown
Doppler factor
Unknown
Orbital elements
Apogee altitude
703.911 km
Perigee altitude
654.41 km
Semi-major axis
7,057.298 km
Eccentricity
0.00351
Inclination
98.976°
RAAN
116.7517°
Arg. of periapsis
292.8824°
True anomaly
67.23771°
Mean anomaly
66.8675°
Eccentric anomaly
67.05254°
Mean motion
3.66088 °/min
Orbital period
98.34 mins
BSTAR
0.0018205
Loading maneuver chart data...
Computing Atmospheric mass density...
Loading historical data...
Loading historical data...
Loading historical data...
Loading historical data...
Loading historical data...
Loading historical data...
Loading historical data...

Documentation

Showing up to 5 results
|